Time,TemperatureF,DewpointF,PressureIn,WindDirection,WindDirectionDegrees,WindSpeedMPH,WindSpeedGustMPH,Humidity,HourlyPrecipIn,Conditions,Clouds,dailyrainin,SoftwareType,DateUTC
2013-04-22 00:11:00,37.0,29.0,30.68,North,351,0.0,1.0,72,0.00,,,0.00,weatherlink.com 1.10,2013-04-22 04:11:00,
2013-04-22 00:26:00,37.5,29.0,30.67,North,352,0.0,0.0,70,0.00,,,0.00,weatherlink.com 1.10,2013-04-22 04:26:00,
2013-04-22 00:41:00,37.7,29.0,30.68,North,352,0.0,0.0,70,0.00,,,0.00,weatherlink.com 1.10,2013-04-22 04:41:00,
2013-04-22 00:56:00,37.3,29.0,30.68,North,352,0.0,0.0,72,0.00,,,0.00,weatherlink.com 1.10,2013-04-22 04:56:00,
2013-04-22 01:11:00,37.1,29.0,30.67,North,352,0.0,1.0,72,0.00,,,0.00,weatherlink.com 1.10,2013-04-22 05:11:00,
2013-04-22 01:26:00,37.0,29.0,30.67,North,1,0.0,1.0,72,0.00,,,0.00,weatherlink.com 1.10,2013-04-22 05:26:00,
2013-04-22 01:41:00,36.5,29.0,30.67,North,2,0.0,1.0,74,0.00,,,0.00,weatherlink.com 1.10,2013-04-22 05:41:00,
2013-04-22 01:56:00,36.1,29.0,30.67,North,2,0.0,1.0,74,0.00,,,0.00,weatherlink.com 1.10,2013-04-22 05:56:00,
2013-04-22 02:11:00,35.7,29.0,30.67,North,1,0.0,0.0,75,0.00,,,0.00,weatherlink.com 1.10,2013-04-22 06:11:00,
2013-04-22 02:26:00,35.3,28.0,30.68,North,1,0.0,0.0,76,0.00,,,0.00,weatherlink.com 1.10,2013-04-22 06:26:00,
2013-04-22 02:41:00,34.8,29.0,30.68,North,1,0.0,0.0,78,0.00,,,0.00,weatherlink.com 1.10,2013-04-22 06:41:00,
2013-04-22 02:56:00,34.6,29.0,30.68,North,1,0.0,0.0,80,0.00,,,0.00,weatherlink.com 1.10,2013-04-22 06:56:00,
2013-04-22 03:11:00,34.6,30.0,30.68,North,356,0.0,1.0,82,0.00,,,0.00,weatherlink.com 1.10,2013-04-22 07:11:00,
2013-04-22 03:26:00,34.6,30.0,30.68,North,356,0.0,0.0,82,0.00,,,0.00,weatherlink.com 1.10,2013-04-22 07:26:00,
2013-04-22 03:41:00,34.5,29.0,30.68,North,356,0.0,0.0,81,0.00,,,0.00,weatherlink.com 1.10,2013-04-22 07:41:00,
2013-04-22 03:56:00,34.5,29.0,30.68,NNW,340,0.0,1.0,80,0.00,,,0.00,weatherlink.com 1.10,2013-04-22 07:56:00,
2013-04-22 04:11:00,34.7,29.0,30.68,NNW,340,0.0,1.0,80,0.00,,,0.00,weatherlink.com 1.10,2013-04-22 08:11:00,
2013-04-22 04:26:00,34.8,29.0,30.68,NNW,336,0.0,1.0,79,0.00,,,0.00,weatherlink.com 1.10,2013-04-22 08:26:00,
2013-04-22 04:41:00,35.1,29.0,30.68,North,355,0.0,0.0,79,0.00,,,0.00,weatherlink.com 1.10,2013-04-22 08:41:00,
2013-04-22 04:56:00,35.5,30.0,30.68,ENE,65,0.0,2.0,79,0.00,,,0.00,weatherlink.com 1.10,2013-04-22 08:56:00,
2013-04-22 05:11:00,35.8,30.0,30.69,NE,56,0.0,3.0,79,0.00,,,0.00,weatherlink.com 1.10,2013-04-22 09:11:00,
2013-04-22 05:26:00,36.0,30.0,30.69,NE,39,0.0,4.0,79,0.00,,,0.00,weatherlink.com 1.10,2013-04-22 09:26:00,
2013-04-22 05:41:00,35.9,30.0,30.69,NE,37,0.0,3.0,80,0.00,,,0.00,weatherlink.com 1.10,2013-04-22 09:41:00,
2013-04-22 05:56:00,35.7,30.0,30.69,NNE,18,0.0,5.0,81,0.00,,,0.00,weatherlink.com 1.10,2013-04-22 09:56:00,
2013-04-22 06:11:00,35.5,31.0,30.70,NNE,18,0.0,5.0,83,0.00,,,0.00,weatherlink.com 1.10,2013-04-22 10:11:00,
2013-04-22 06:26:00,35.5,31.0,30.70,NE,44,0.0,3.0,83,0.00,,,0.00,weatherlink.com 1.10,2013-04-22 10:26:00,
2013-04-22 06:41:00,35.9,31.0,30.70,NE,43,0.0,2.0,83,0.00,,,0.00,weatherlink.com 1.10,2013-04-22 10:41:00,
2013-04-22 06:56:00,36.9,32.0,30.71,ENE,68,3.0,5.0,83,0.00,,,0.00,weatherlink.com 1.10,2013-04-22 10:56:00,
2013-04-22 07:11:00,38.5,33.0,30.71,ENE,65,1.0,4.0,80,0.00,,,0.00,weatherlink.com 1.10,2013-04-22 11:11:00,
2013-04-22 07:27:00,39.8,33.0,30.71,NE,50,4.0,7.0,78,0.00,,,0.00,weatherlink.com 1.10,2013-04-22 11:27:00,
2013-04-22 07:42:00,41.6,34.0,30.71,ENE,77,0.0,6.0,75,0.00,,,0.00,weatherlink.com 1.10,2013-04-22 11:42:00,
2013-04-22 07:57:00,43.1,34.0,30.70,ENE,70,4.0,8.0,71,0.00,,,0.00,weatherlink.com 1.10,2013-04-22 11:57:00,
2013-04-22 08:12:00,44.4,35.0,30.70,ENE,73,3.0,5.0,69,0.00,,,0.00,weatherlink.com 1.10,2013-04-22 12:12:00,
2013-04-22 08:27:00,45.5,35.0,30.70,NE,39,4.0,7.0,67,0.00,,,0.00,weatherlink.com 1.10,2013-04-22 12:27:00,
2013-04-22 08:42:00,46.7,32.0,30.70,SE,139,0.0,13.0,57,0.00,,,0.00,weatherlink.com 1.10,2013-04-22 12:42:00,
2013-04-22 08:57:00,48.1,33.0,30.70,NE,52,4.0,8.0,56,0.00,,,0.00,weatherlink.com 1.10,2013-04-22 12:57:00,
2013-04-22 09:12:00,48.2,31.0,30.70,East,98,6.0,8.0,51,0.00,,,0.00,weatherlink.com 1.10,2013-04-22 13:12:00,
2013-04-22 09:27:00,48.7,31.0,30.72,ENE,78,3.0,14.0,50,0.00,,,0.00,weatherlink.com 1.10,2013-04-22 13:27:00,
2013-04-22 09:42:00,48.8,30.0,30.73,ENE,69,2.0,12.0,48,0.00,,,0.00,weatherlink.com 1.10,2013-04-22 13:42:00,
2013-04-22 09:57:00,49.2,28.0,30.72,SE,145,4.0,11.0,44,0.00,,,0.00,weatherlink.com 1.10,2013-04-22 13:57:00,
2013-04-22 10:12:00,49.9,30.0,30.73,ESE,115,6.0,13.0,46,0.00,,,0.00,weatherlink.com 1.10,2013-04-22 14:12:00,
2013-04-22 10:27:00,50.6,29.0,30.72,NE,44,4.0,10.0,43,0.00,,,0.00,weatherlink.com 1.10,2013-04-22 14:27:00,
2013-04-22 10:42:00,50.9,28.0,30.72,ENE,63,6.0,14.0,41,0.00,,,0.00,weatherlink.com 1.10,2013-04-22 14:42:00,
2013-04-22 10:57:00,51.0,29.0,30.71,NNE,26,3.0,13.0,43,0.00,,,0.00,weatherlink.com 1.10,2013-04-22 14:57:00,
2013-04-22 11:12:00,50.9,29.0,30.70,North,360,2.0,13.0,44,0.00,,,0.00,weatherlink.com 1.10,2013-04-22 15:12:00,
2013-04-22 11:27:00,51.0,30.0,30.69,ENE,73,8.0,15.0,45,0.00,,,0.00,weatherlink.com 1.10,2013-04-22 15:27:00,
2013-04-22 11:42:00,50.7,30.0,30.70,NE,49,3.0,16.0,45,0.00,,,0.00,weatherlink.com 1.10,2013-04-22 15:42:00,
2013-04-22 11:57:00,51.5,31.0,30.70,NNW,335,3.0,13.0,46,0.00,,,0.00,weatherlink.com 1.10,2013-04-22 15:57:00,
2013-04-22 12:12:00,51.6,31.0,30.69,ENE,66,2.0,11.0,45,0.00,,,0.00,weatherlink.com 1.10,2013-04-22 16:12:00,
2013-04-22 12:27:00,51.8,30.0,30.68,NE,40,8.0,11.0,44,0.00,,,0.00,weatherlink.com 1.10,2013-04-22 16:27:00,
2013-04-22 12:42:00,52.0,29.0,30.69,ENE,61,5.0,12.0,42,0.00,,,0.00,weatherlink.com 1.10,2013-04-22 16:42:00,
2013-04-22 12:57:00,51.5,30.0,30.68,NE,38,12.0,12.0,44,0.00,,,0.00,weatherlink.com 1.10,2013-04-22 16:57:00,
2013-04-22 13:12:00,52.1,31.0,30.68,ESE,120,0.0,12.0,44,0.00,,,0.00,weatherlink.com 1.10,2013-04-22 17:12:00,
2013-04-22 13:27:00,51.7,32.0,30.67,NNE,33,5.0,11.0,47,0.00,,,0.00,weatherlink.com 1.10,2013-04-22 17:27:00,
2013-04-22 13:42:00,51.5,33.0,30.68,NE,34,11.0,11.0,49,0.00,,,0.00,weatherlink.com 1.10,2013-04-22 17:42:00,
2013-04-22 13:57:00,50.5,34.0,30.67,NE,46,7.0,13.0,53,0.00,,,0.00,weatherlink.com 1.10,2013-04-22 17:57:00,
2013-04-22 14:13:00,49.9,34.0,30.68,NW,325,4.0,11.0,55,0.00,,,0.00,weatherlink.com 1.10,2013-04-22 18:13:00,
2013-04-22 14:28:00,48.9,34.0,30.66,ENE,75,8.0,11.0,58,0.00,,,0.00,weatherlink.com 1.10,2013-04-22 18:28:00,
2013-04-22 14:43:00,48.6,36.0,30.65,ESE,114,2.0,13.0,63,0.00,,,0.00,weatherlink.com 1.10,2013-04-22 18:43:00,
2013-04-22 14:58:00,49.1,36.0,30.64,SE,141,4.0,9.0,62,0.00,,,0.00,weatherlink.com 1.10,2013-04-22 18:58:00,
2013-04-22 15:13:00,49.6,36.0,30.64,ESE,102,5.0,10.0,61,0.00,,,0.00,weatherlink.com 1.10,2013-04-22 19:13:00,
2013-04-22 15:28:00,50.0,36.0,30.64,SSE,166,4.0,12.0,59,0.00,,,0.00,weatherlink.com 1.10,2013-04-22 19:28:00,
2013-04-22 15:43:00,49.7,36.0,30.64,SSE,148,4.0,13.0,60,0.00,,,0.00,weatherlink.com 1.10,2013-04-22 19:43:00,
2013-04-22 15:58:00,48.7,36.0,30.64,South,176,1.0,14.0,62,0.00,,,0.00,weatherlink.com 1.10,2013-04-22 19:58:00,
2013-04-22 16:13:00,48.1,36.0,30.64,ESE,119,5.0,14.0,63,0.00,,,0.00,weatherlink.com 1.10,2013-04-22 20:13:00,
2013-04-22 16:28:00,47.9,34.0,30.64,SE,131,1.0,10.0,60,0.00,,,0.00,weatherlink.com 1.10,2013-04-22 20:28:00,
2013-04-22 16:43:00,47.2,35.0,30.64,NNE,16,1.0,7.0,64,0.00,,,0.00,weatherlink.com 1.10,2013-04-22 20:43:00,
2013-04-22 16:58:00,46.8,35.0,30.63,NNE,29,3.0,9.0,63,0.00,,,0.00,weatherlink.com 1.10,2013-04-22 20:58:00,
2013-04-22 17:13:00,46.4,34.0,30.64,NE,55,2.0,7.0,63,0.00,,,0.00,weatherlink.com 1.10,2013-04-22 21:13:00,
2013-04-22 17:28:00,46.2,36.0,30.63,ENE,57,10.0,12.0,67,0.00,,,0.00,weatherlink.com 1.10,2013-04-22 21:28:00,
2013-04-22 17:43:00,45.7,36.0,30.63,East,85,6.0,13.0,68,0.00,,,0.00,weatherlink.com 1.10,2013-04-22 21:43:00,
2013-04-22 17:58:00,45.5,35.0,30.62,SE,145,3.0,12.0,68,0.00,,,0.00,weatherlink.com 1.10,2013-04-22 21:58:00,
2013-04-22 18:13:00,45.2,35.0,30.62,ENE,73,4.0,13.0,68,0.00,,,0.00,weatherlink.com 1.10,2013-04-22 22:13:00,
2013-04-22 18:28:00,45.0,34.0,30.62,NNW,340,5.0,12.0,66,0.00,,,0.00,weatherlink.com 1.10,2013-04-22 22:28:00,
2013-04-22 18:43:00,44.5,34.0,30.61,SE,136,1.0,11.0,67,0.00,,,0.00,weatherlink.com 1.10,2013-04-22 22:43:00,
2013-04-22 18:58:00,44.0,34.0,30.61,ENE,62,1.0,9.0,67,0.00,,,0.00,weatherlink.com 1.10,2013-04-22 22:58:00,
2013-04-22 19:13:00,43.3,33.0,30.61,NE,44,3.0,8.0,67,0.00,,,0.00,weatherlink.com 1.10,2013-04-22 23:13:00,
2013-04-22 19:28:00,42.8,32.0,30.61,East,91,3.0,14.0,67,0.00,,,0.00,weatherlink.com 1.10,2013-04-22 23:28:00,
2013-04-22 19:43:00,42.4,32.0,30.62,SE,124,2.0,10.0,67,0.00,,,0.00,weatherlink.com 1.10,2013-04-22 23:43:00,
2013-04-22 19:58:00,42.0,32.0,30.61,ENE,70,5.0,11.0,67,0.00,,,0.00,weatherlink.com 1.10,2013-04-22 23:58:00,
2013-04-22 20:13:00,41.8,32.0,30.61,ESE,110,4.0,11.0,68,0.00,,,0.00,weatherlink.com 1.10,2013-04-23 00:13:00,
2013-04-22 20:28:00,41.7,33.0,30.62,ENE,68,3.0,8.0,70,0.00,,,0.00,weatherlink.com 1.10,2013-04-23 00:28:00,
2013-04-22 20:43:00,41.7,33.0,30.62,East,98,2.0,8.0,71,0.00,,,0.00,weatherlink.com 1.10,2013-04-23 00:43:00,
2013-04-22 20:58:00,41.7,33.0,30.62,NE,46,5.0,8.0,71,0.00,,,0.00,weatherlink.com 1.10,2013-04-23 00:58:00,
2013-04-22 21:13:00,41.7,33.0,30.62,East,80,0.0,8.0,71,0.00,,,0.00,weatherlink.com 1.10,2013-04-23 01:13:00,
2013-04-22 21:28:00,41.5,33.0,30.61,ENE,65,3.0,11.0,71,0.00,,,0.00,weatherlink.com 1.10,2013-04-23 01:28:00,
2013-04-22 21:43:00,41.3,33.0,30.61,ENE,66,7.0,9.0,71,0.00,,,0.00,weatherlink.com 1.10,2013-04-23 01:43:00,
2013-04-22 21:58:00,41.2,33.0,30.60,East,83,3.0,10.0,72,0.00,,,0.00,weatherlink.com 1.10,2013-04-23 01:58:00,
2013-04-22 22:13:00,41.1,33.0,30.59,ENE,75,2.0,8.0,72,0.00,,,0.00,weatherlink.com 1.10,2013-04-23 02:13:00,
2013-04-22 22:28:00,41.0,33.0,30.59,NNE,22,2.0,7.0,72,0.00,,,0.00,weatherlink.com 1.10,2013-04-23 02:28:00,
2013-04-22 22:43:00,41.0,33.0,30.59,ESE,115,2.0,10.0,72,0.00,,,0.00,weatherlink.com 1.10,2013-04-23 02:43:00,
2013-04-22 22:58:00,41.0,33.0,30.59,NE,48,3.0,8.0,72,0.00,,,0.00,weatherlink.com 1.10,2013-04-23 02:58:00,
2013-04-22 23:13:00,41.1,33.0,30.59,NE,49,1.0,8.0,72,0.00,,,0.00,weatherlink.com 1.10,2013-04-23 03:13:00,
2013-04-22 23:28:00,41.1,33.0,30.58,East,87,3.0,10.0,72,0.00,,,0.00,weatherlink.com 1.10,2013-04-23 03:28:00,
2013-04-22 23:43:00,41.3,33.0,30.57,NE,47,6.0,8.0,72,0.00,,,0.00,weatherlink.com 1.10,2013-04-23 03:43:00,
2013-04-22 23:58:00,41.1,33.0,30.57,ENE,68,5.0,9.0,72,0.00,,,0.00,weatherlink.com 1.10,2013-04-23 03:58:00,